Mount Carmel, IL

9:56 AM CST on December 08, 2019 (GMT -0600)
Mount Carmel Municipal

Weather History for KAJG - October, 2019

Change the Weather History Date:

Thursday, October 10, 2019

  Actual Average (KLWV) Record (KLWV)
Temperature  
Mean Temperature 66 °F -  
Max Temperature 81 °F 69 °F 89 °F (2010)
Min Temperature 50 °F 45 °F 30 °F (2000)
Growing Degree Days 16 (Base 50)    
Moisture  
Dew Point 59 °F    
Average Humidity 78    
Maximum Humidity 97    
Minimum Humidity 51    
Precipitation  
Precipitation 0.00 in - - ()
Sea Level Pressure  
Sea Level Pressure 30.03 in    
Wind  
Wind Speed 8 mph (SE)    
Max Wind Speed 13 mph    
Max Gust Speed 17 mph    
Visibility 9 miles    
Events Rain    
Averages and records for this station are not official NWS values.
T = Trace of Precipitation, MM = Missing Value Source: NWS Daily Summary

Daily Weather History Graph

Daily Weather History Graph

Search for Another Location

Airport or City:

Astronomy

Oct. 10, 2019 Rise Set
Actual Time 6:55 AM CDT 6:20 PM CDT
Civil Twilight 6:28 AM CDT 6:46 PM CDT
Nautical Twilight 5:57 AM CDT 7:17 PM CDT
Astronomical Twilight 5:26 AM CDT 7:48 PM CDT
Moon 5:18 PM CDT (10/10) 3:41 AM CDT (10/10)
Length of Visible Light 12h 18m
Length of Day
11h 25m
Waxing Gibbous, 91% of the Moon is Illuminated
Oct 10
Waxing Gibbous
Oct 13
Full
Oct 21
Last Quarter
Oct 27
New
Nov 4
First Quarter

Hourly Weather History & Observations

Time (CDT) Temp. Heat Index Dew Point Humidity Pressure Visibility Wind Dir Wind Speed Gust Speed Precip Events Conditions
12:15 AM 53.8 °F - 52.2 °F 94% 30.07 in 10.0 mi North - - N/A   Clear
12:35 AM 53.6 °F - 52.3 °F 95% 30.07 in 10.0 mi East 4.6 mph - N/A   Clear
12:55 AM 52.7 °F - 51.3 °F 95% 30.07 in 7.0 mi North - - N/A   Clear
1:15 AM 53.6 °F - 52.2 °F 95% 30.07 in 4.0 mi North - - N/A   Clear
1:35 AM 52.9 °F - 52.0 °F 97% 30.07 in 7.0 mi North - - N/A   Clear
1:55 AM 53.6 °F - 52.7 °F 97% 30.07 in 5.0 mi North - - N/A   Clear
2:15 AM 50.9 °F - 49.8 °F 96% 30.07 in 4.0 mi North - - N/A   Clear
2:55 AM 54.1 °F - 52.9 °F 95% 30.07 in 10.0 mi North - - N/A   Scattered Clouds
3:15 AM 51.1 °F - 49.6 °F 95% 30.07 in 7.0 mi North - - N/A   Scattered Clouds
3:35 AM 54.1 °F - 52.9 °F 95% 30.07 in 7.0 mi ENE 3.5 mph - N/A   Mostly Cloudy
3:55 AM 54.7 °F - 53.6 °F 96% 30.07 in 5.0 mi North - - N/A   Mostly Cloudy
4:15 AM 55.4 °F - 54.1 °F 96% 30.07 in 5.0 mi North - - N/A   Mostly Cloudy
4:35 AM 55.0 °F - 53.8 °F 96% 30.07 in 5.0 mi North - - N/A   Scattered Clouds
4:55 AM 55.0 °F - 53.6 °F 95% 30.08 in 5.0 mi North - - N/A   Scattered Clouds
5:15 AM 53.6 °F - 52.3 °F 95% 30.07 in 4.0 mi North - - N/A   Scattered Clouds
5:35 AM 53.4 °F - 52.2 °F 95% 30.07 in 4.0 mi North - - N/A   Scattered Clouds
5:55 AM 53.8 °F - 52.7 °F 96% 30.06 in 4.0 mi East 5.8 mph - N/A   Scattered Clouds
6:15 AM 53.6 °F - 52.2 °F 95% 30.06 in 4.0 mi North - - N/A   Scattered Clouds
6:35 AM 53.1 °F - 52.0 °F 96% 30.06 in 4.0 mi North - - N/A   Mostly Cloudy
6:55 AM 53.8 °F - 52.9 °F 97% 30.06 in 3.0 mi North - - N/A   Overcast
7:15 AM 54.7 °F - 53.8 °F 97% 30.06 in 4.0 mi North - - N/A   Overcast
7:35 AM 55.6 °F - 54.7 °F 97% 30.06 in 4.0 mi North - - N/A   Scattered Clouds
7:55 AM 57.2 °F - 55.6 °F 94% 30.07 in 7.0 mi North - - N/A   Scattered Clouds
8:15 AM 58.1 °F - 56.5 °F 94% 30.08 in 10.0 mi North - - N/A   Scattered Clouds
8:35 AM 60.3 °F - 57.7 °F 91% 30.08 in 10.0 mi North - - N/A   Scattered Clouds
8:55 AM 61.7 °F - 58.3 °F 89% 30.09 in 10.0 mi North - - N/A   Scattered Clouds
9:15 AM 63.1 °F - 59.2 °F 87% 30.08 in 10.0 mi North - - N/A   Mostly Cloudy
9:35 AM 65.1 °F - 60.3 °F 84% 30.09 in 10.0 mi SSE 6.9 mph - N/A   Mostly Cloudy
9:55 AM 66.9 °F - 60.8 °F 81% 30.08 in 10.0 mi SSE 6.9 mph - N/A   Scattered Clouds
10:15 AM 68.9 °F - 61.3 °F 77% 30.08 in 10.0 mi SSE 6.9 mph - N/A   Scattered Clouds
10:35 AM 70.5 °F - 61.7 °F 74% 30.08 in 10.0 mi SSE 9.2 mph - N/A   Scattered Clouds
10:55 AM 72.1 °F - 61.9 °F 70% 30.07 in 10.0 mi North - - N/A   Scattered Clouds
11:15 AM 73.0 °F - 62.2 °F 69% 30.07 in 10.0 mi North - - N/A   Mostly Cloudy
11:35 AM 74.3 °F - 62.8 °F 67% 30.07 in 10.0 mi South 6.9 mph - N/A   Mostly Cloudy
11:55 AM 76.3 °F - 62.8 °F 63% 30.06 in 10.0 mi SSE 8.1 mph - N/A   Scattered Clouds
12:15 PM 76.8 °F - 62.8 °F 62% 30.06 in 10.0 mi SE 8.1 mph - N/A   Clear
12:35 PM 77.0 °F - 63.0 °F 62% 30.05 in 10.0 mi North - - N/A   Scattered Clouds
12:55 PM 77.7 °F - 63.1 °F 61% 30.05 in 10.0 mi SE 9.2 mph - N/A   Mostly Cloudy
1:15 PM 79.3 °F - 63.0 °F 57% 30.03 in 10.0 mi SSE 11.5 mph - N/A   Scattered Clouds
1:35 PM 79.0 °F - 63.1 °F 58% 30.02 in 10.0 mi SSE 11.5 mph - N/A   Clear
1:55 PM 80.2 °F 81.6 °F 63.1 °F 56% 30.01 in 10.0 mi SE 10.4 mph 17.3 mph N/A   Scattered Clouds
2:15 PM 79.7 °F - 63.0 °F 56% 30.00 in 10.0 mi SSE 11.5 mph 16.1 mph N/A   Scattered Clouds
2:35 PM 80.6 °F 81.8 °F 62.6 °F 54% 29.99 in 10.0 mi SSE 10.4 mph - N/A   Clear
2:55 PM 80.4 °F 81.6 °F 62.4 °F 54% 29.99 in 10.0 mi SE 12.7 mph 16.1 mph N/A   Scattered Clouds
3:15 PM 79.9 °F - 62.4 °F 55% 29.98 in 10.0 mi SSE 10.4 mph - N/A   Scattered Clouds
3:35 PM 80.4 °F 81.5 °F 62.1 °F 53% 29.97 in 10.0 mi SE 11.5 mph - N/A   Clear
3:55 PM 81.5 °F 82.4 °F 61.9 °F 51% 29.97 in 10.0 mi ESE 11.5 mph - N/A   Clear
4:15 PM 81.3 °F 82.2 °F 61.7 °F 51% 29.96 in 10.0 mi SE 12.7 mph - N/A   Clear
4:35 PM 80.8 °F 81.9 °F 62.2 °F 53% 29.96 in 10.0 mi ESE 11.5 mph - N/A   Scattered Clouds
4:55 PM 79.9 °F - 62.4 °F 55% 29.96 in 10.0 mi ESE 9.2 mph - N/A   Scattered Clouds
5:15 PM 79.5 °F - 62.6 °F 56% 29.96 in 10.0 mi ESE 9.2 mph - N/A   Overcast
5:35 PM 76.3 °F - 64.8 °F 67% 29.96 in 10.0 mi SE 8.1 mph - N/A   Overcast
5:55 PM 75.2 °F - 64.4 °F 69% 29.96 in 10.0 mi SE 5.8 mph - N/A   Mostly Cloudy
6:15 PM 74.5 °F - 63.5 °F 68% 29.96 in 10.0 mi SE 11.5 mph - N/A   Clear
6:35 PM 73.0 °F - 62.6 °F 70% 29.96 in 10.0 mi ESE 6.9 mph - N/A   Clear
6:55 PM 71.8 °F - 62.2 °F 72% 29.96 in 10.0 mi North - - N/A   Clear
7:15 PM 70.3 °F - 62.6 °F 76% 29.96 in 10.0 mi ESE 6.9 mph - N/A   Clear
7:35 PM 69.8 °F - 62.2 °F 77% 29.96 in 10.0 mi SE 5.8 mph - N/A   Clear
7:55 PM 69.6 °F - 62.4 °F 78% 29.96 in 10.0 mi SE 6.9 mph - N/A   Clear
8:15 PM 69.3 °F - 62.8 °F 80% 29.97 in 10.0 mi SE 5.8 mph - N/A   Clear
8:35 PM 68.7 °F - 62.4 °F 80% 29.96 in 10.0 mi North - - N/A   Clear
8:55 PM 71.4 °F - 63.9 °F 77% 29.96 in 10.0 mi SSE 10.4 mph - N/A   Clear
9:15 PM 72.7 °F - 64.0 °F 74% 29.97 in 10.0 mi SSE 9.2 mph - N/A   Clear
9:35 PM 72.7 °F - 64.4 °F 75% 29.97 in 10.0 mi SSE 12.7 mph - N/A   Clear
9:55 PM 72.9 °F - 64.6 °F 75% 29.98 in 10.0 mi SSE 10.4 mph - N/A Rain Light Rain
10:15 PM 72.5 °F - 64.4 °F 76% 29.99 in 10.0 mi South 8.1 mph - N/A   Clear
10:35 PM 71.6 °F - 64.4 °F 78% 29.99 in 10.0 mi North - - N/A   Clear
10:55 PM 71.6 °F - 64.6 °F 78% 29.99 in 10.0 mi North - - N/A   Clear
11:15 PM 70.9 °F - 64.4 °F 80% 29.98 in 10.0 mi North - - N/A   Clear
11:35 PM 70.2 °F - 64.4 °F 82% 29.98 in 10.0 mi North - - N/A   Clear
11:55 PM 69.6 °F - 64.0 °F 82% 29.98 in 10.0 mi SSE 5.8 mph - N/A   Clear